Location: La Tine
(46.4708°N, 7.0525°E)
Time: 00:56:35
(UTC+00:00)

Cosmos 1833 Rocket - Pass Details

Date: 20 January 2021
Orbit: 833 x 839 km, 71.0° (Epoch: 03 March)

Event Time Altitude Azimuth Distance (km) Brightness Sun altitude
Rises 19:31:41 0° 333° (NNW) 3,391 6.2 -32.9°
Reaches altitude 10° 19:34:08 10° 333° (NNW) 2,453 5.4 -33.3°
Enters shadow 19:36:44 29° 334° (NNW) 1,505 4.2 -33.7°
